WE0DX-1 Weather Reports


Display with metric or nautical units.
time (UTC)temp
F
wind
direction
speed
MPH
gust
MPH
rain 1hr
in
rain 24hr
in
rain mn
in
humidity
%
barometer
mb
20260906023904 87 71 0.0 1.0 0.00 0.00 0.00 61 1012.8
20260906023400 88 69 0.0 0.0 0.00 0.00 0.00 61 1012.8
20260906022855 88 64 0.0 0.0 0.00 0.00 0.00 60 1012.7
20260906022350 88 60 0.0 1.0 0.00 0.00 0.00 60 1012.7
20260906021846 88 64 0.0 1.0 0.00 0.00 0.00 61 1012.3
20260906021345 88 62 0.0 0.0 0.00 0.00 0.00 60 1012.5
20260906020840 88 73 0.0 0.0 0.00 0.00 0.00 60 1012.5
20260906020339 88 60 0.0 0.0 0.00 0.00 0.00 60 1012.5
20260906015834 88 67 0.0 0.0 0.00 0.00 0.00 61 1012.3
20260906015332 88 77 0.0 0.0 0.00 0.00 0.00 61 1012.3
20260906014827 88 48 0.0 0.0 0.00 0.00 0.00 60 1012.4
20260906014322 88 69 0.0 0.0 0.00 0.00 0.00 60 1011.9
20260906013819 89 71 0.0 0.0 0.00 0.00 0.00 60 1012.2
20260906013313 89 48 0.0 0.0 0.00 0.00 0.00 60 1012.0
20260906012809 89 75 0.0 0.0 0.00 0.00 0.00 60 1012.0
20260906012309 89 71 0.0 0.0 0.00 0.00 0.00 60 1011.9
20260906011804 89 67 0.0 0.0 0.00 0.00 0.00 61 1012.0
20260906011304 89 64 0.0 0.0 0.00 0.00 0.00 60 1011.9
20260906010800 89 75 0.0 0.0 0.00 0.00 0.00 60 1012.2
20260906010256 90 71 0.0 0.0 0.00 0.00 0.00 59 1011.8
20260906005751 90 68 0.0 0.0 0.00 0.00 0.00 60 1011.8
20260906005250 90 64 0.0 0.0 0.00 0.00 0.00 59 1012.1
20260906004749 90 67 0.0 0.0 0.00 0.00 0.00 59 1012.0
20260906004244 91 68 0.0 0.0 0.00 0.00 0.00 57 1012.1
20260906003739 91 68 0.0 0.0 0.00 0.00 0.00 56 1012.1
20260906003235 91 68 0.0 0.0 0.00 0.00 0.00 56 1012.0
20260906002734 92 68 0.0 0.0 0.00 0.00 0.00 55 1012.0
20260906002229 92 68 0.0 0.0 0.00 0.00 0.00 55 1011.9
20260906001725 92 68 0.0 0.0 0.00 0.00 0.00 55 1011.8
20260906001220 92 68 0.0 0.0 0.00 0.00 0.00 56 1012.0
20260906000715 92 68 0.0 0.0 0.00 0.00 0.00 55 1012.0
20260906000212 93 68 0.0 0.0 0.00 0.00 0.00 56 1012.0
20260905235709 93 68 0.0 0.0 0.00 0.00 0.00 55 1012.0
20260905235204 93 69 0.0 0.0 0.00 0.00 0.00 53 1011.7
20260905234700 93 69 0.0 0.0 0.00 0.00 0.00 54 1011.9
20260905234155 93 68 0.0 0.0 0.00 0.00 0.00 53 1011.9
20260905233650 94 69 0.0 0.0 0.00 0.00 0.00 54 1011.8
20260905233149 94 69 0.0 0.0 0.00 0.00 0.00 53 1011.7
20260905232644 94 72 0.0 0.0 0.00 0.00 0.00 51 1011.6
20260905232140 95 84 0.0 0.0 0.00 0.00 0.00 52 1011.6
20260905231635 95 86 0.0 0.0 0.00 0.00 0.00 51 1011.6
20260905231132 95 68 0.0 0.0 0.00 0.00 0.00 50 1011.7
20260905230627 95 68 0.0 0.0 0.00 0.00 0.00 49 1011.8
20260905230125 95 68 0.0 0.0 0.00 0.00 0.00 48 1011.8
20260905225624 96 68 0.0 0.0 0.00 0.00 0.00 46 1011.8
20260905225120 96 71 0.0 0.0 0.00 0.00 0.00 48 1011.5
20260905224614 96 68 0.0 0.0 0.00 0.00 0.00 46 1011.6
20260905224113 96 86 0.0 0.0 0.00 0.00 0.00 49 1011.7
20260905223611 96 86 0.0 0.0 0.00 0.00 0.00 47 1011.7
20260905223107 96 74 0.0 0.0 0.00 0.00 0.00 46 1011.6
20260905222607 96 106 0.0 0.0 0.00 0.00 0.00 47 1011.6
20260905222102 96 140 0.0 0.0 0.00 0.00 0.00 46 1012.1
20260905221558 96 103 0.0 0.0 0.00 0.00 0.00 46 1011.8
20260905221054 96 75 0.0 2.0 0.00 0.00 0.00 46 1011.6
20260905220549 96 68 1.0 2.0 0.00 0.00 0.00 46 1011.8
20260905220045 96 36 2.0 3.0 0.00 0.00 0.00 46 1011.9
20260905215544 96 54 1.0 3.0 0.00 0.00 0.00 46 1011.8
20260905215041 97 61 1.0 2.0 0.00 0.00 0.00 46 1011.9
20260905214537 96 53 0.0 0.0 0.00 0.00 0.00 45 1012.0
20260905214031 96 109 0.0 0.0 0.00 0.00 0.00 48 1012.1
20260905213527 96 50 1.0 3.0 0.00 0.00 0.00 46 1012.3
20260905213022 97 45 0.0 0.0 0.00 0.00 0.00 45 1012.3
20260905212517 97 71 0.0 0.0 0.00 0.00 0.00 48 1012.4
20260905212017 97 65 0.0 0.0 0.00 0.00 0.00 47 1012.4
20260905211512 97 72 0.0 0.0 0.00 0.00 0.00 47 1012.5
20260905211008 96 70 0.0 2.0 0.00 0.00 0.00 46 1012.8
20260905210503 96 71 0.0 1.0 0.00 0.00 0.00 47 1012.8
20260905210003 97 67 0.0 0.0 0.00 0.00 0.00 47 1012.9
20260905205457 96 54 0.0 1.0 0.00 0.00 0.00 47 1012.9
20260905204956 96 71 0.0 1.0 0.00 0.00 0.00 47 1012.8
20260905204451 96 48 2.0 3.0 0.00 0.00 0.00 47 1013.0
20260905203951 97 20 1.0 2.0 0.00 0.00 0.00 46 1013.0
20260905203446 97 134 1.0 1.0 0.00 0.00 0.00 46 1013.2
20260905202942 97 71 0.0 1.0 0.00 0.00 0.00 46 1013.0
20260905202437 97 66 0.0 0.0 0.00 0.00 0.00 46 1013.1
20260905201932 98 68 1.0 1.0 0.00 0.00 0.00 45 1013.2
20260905201427 98 98 0.0 0.0 0.00 0.00 0.00 45 1013.1
20260905200927 98 75 0.0 0.0 0.00 0.00 0.00 46 1013.5
20260905200423 98 77 0.0 0.0 0.00 0.00 0.00 47 1013.4
20260905195921 97 71 0.0 0.0 0.00 0.00 0.00 48 1013.3
20260905195416 97 72 0.0 0.0 0.00 0.00 0.00 47 1013.5
20260905194912 96 74 0.0 0.0 0.00 0.00 0.00 48 1013.5
20260905194406 96 56 0.0 2.0 0.00 0.00 0.00 48 1013.6
20260905193905 96 67 1.0 2.0 0.00 0.00 0.00 49 1013.7
20260905193400 96 47 0.0 0.0 0.00 0.00 0.00 50 1013.8
20260905192856 95 61 0.0 1.0 0.00 0.00 0.00 51 1013.9
20260905192352 96 65 1.0 3.0 0.00 0.00 0.00 51 1013.9
20260905191851 95 28 0.0 0.0 0.00 0.00 0.00 51 1013.8
20260905191351 95 64 0.0 0.0 0.00 0.00 0.00 51 1013.9
20260905190849 95 69 0.0 0.0 0.00 0.00 0.00 50 1013.8
20260905190342 95 50 0.0 0.0 0.00 0.00 0.00 52 1014.1
20260905185841 96 74 0.0 0.0 0.00 0.00 0.00 51 1014.0
20260905185337 95 75 0.0 0.0 0.00 0.00 0.00 52 1013.9
20260905184835 95 80 0.0 0.0 0.00 0.00 0.00 51 1014.1
20260905184335 96 80 0.0 0.0 0.00 0.00 0.00 51 1014.0
20260905183833 96 80 0.0 0.0 0.00 0.00 0.00 51 1014.1
20260905183329 96 89 0.0 0.0 0.00 0.00 0.00 49 1014.1
20260905182830 97 93 0.0 0.0 0.00 0.00 0.00 47 1014.2
20260905182329 96 105 0.0 0.0 0.00 0.00 0.00 49 1014.4
20260905181825 96 89 0.0 0.0 0.00 0.00 0.00 48 1014.2
20260905181318 96 101 0.0 0.0 0.00 0.00 0.00 49 1014.4
20260905180817 98 127 0.0 0.0 0.00 0.00 0.00 48 1014.5
20260905180313 97 71 0.0 0.0 0.00 0.00 0.00 50 1014.6
20260905175808 96 82 0.0 0.0 0.00 0.00 0.00 52 1014.7
20260905175306 97 74 0.0 0.0 0.00 0.00 0.00 52 1014.6
20260905174757 97 82 0.0 0.0 0.00 0.00 0.00 50 1014.7
20260905174253 97 99 0.0 0.0 0.00 0.00 0.00 52 1014.7
20260905173749 96 98 0.0 0.0 0.00 0.00 0.00 50 1014.9
20260905173245 97 97 0.0 0.0 0.00 0.00 0.00 50 1015.2
20260905172744 97 84 0.0 0.0 0.00 0.00 0.00 50 1014.8
20260905172243 97 98 0.0 0.0 0.00 0.00 0.00 51 1014.9
20260905171739 97 85 0.0 0.0 0.00 0.00 0.00 51 1015.0
20260905171236 96 85 0.0 0.0 0.00 0.00 0.00 51 1014.9
20260905170732 95 86 0.0 0.0 0.00 0.00 0.00 53 1015.1
20260905170228 95 87 0.0 0.0 0.00 0.00 0.00 54 1015.1
20260905165727 95 76 0.0 0.0 0.00 0.00 0.00 53 1015.2
20260905165222 95 110 0.0 0.0 0.00 0.00 0.00 52 1015.6
20260905164716 95 73 0.0 0.0 0.00 0.00 0.00 54 1015.2
20260905164211 94 126 0.0 0.0 0.00 0.00 0.00 55 1015.4
20260905163707 95 78 0.0 0.0 0.00 0.00 0.00 54 1015.2
20260905163203 94 91 0.0 0.0 0.00 0.00 0.00 55 1015.2
20260905162659 93 79 0.0 0.0 0.00 0.00 0.00 56 1015.2
20260905162159 92 112 0.0 0.0 0.00 0.00 0.00 56 1015.3
20260905161653 93 87 0.0 0.0 0.00 0.00 0.00 56 1015.1
20260905161151 93 87 0.0 0.0 0.00 0.00 0.00 56 1014.9
20260905160645 92 91 0.0 0.0 0.00 0.00 0.00 57 1015.3
20260905160144 93 109 0.0 0.0 0.00 0.00 0.00 56 1015.3
20260905155639 91 99 0.0 0.0 0.00 0.00 0.00 56 1015.3
20260905155137 92 85 0.0 0.0 0.00 0.00 0.00 57 1015.0
20260905154632 92 99 0.0 0.0 0.00 0.00 0.00 55 1014.9
20260905154128 92 98 0.0 0.0 0.00 0.00 0.00 56 1015.0
20260905153623 91 112 0.0 0.0 0.00 0.00 0.00 56 1014.8
20260905153119 91 100 0.0 0.0 0.00 0.00 0.00 57 1014.8
20260905152613 89 84 0.0 0.0 0.00 0.00 0.00 60 1014.7
20260905152108 88 125 0.0 0.0 0.00 0.00 0.00 59 1014.6
20260905151602 87 120 0.0 0.0 0.00 0.00 0.00 62 1014.9
20260905151058 87 158 0.0 0.0 0.00 0.00 0.00 63 1014.7
20260905150553 87 93 0.0 0.0 0.00 0.00 0.00 64 1014.8
20260905150052 87 92 0.0 0.0 0.00 0.00 0.00 65 1014.9
20260905145550 87 95 0.0 0.0 0.00 0.00 0.00 64 1014.7
20260905145049 86 94 0.0 0.0 0.00 0.00 0.00 65 1014.5
20260905144545 86 89 0.0 0.0 0.00 0.00 0.00 64 1014.3
20260905144043 85 98 0.0 0.0 0.00 0.00 0.00 65 1014.6
20260905143537 85 114 0.0 0.0 0.00 0.00 0.00 66 1014.4
20260905143032 84 95 0.0 0.0 0.00 0.00 0.00 67 1014.4
20260905142526 84 95 0.0 0.0 0.00 0.00 0.00 65 1014.3
20260905142021 84 128 0.0 0.0 0.00 0.00 0.00 67 1014.6
20260905141521 85 96 0.0 0.0 0.00 0.00 0.00 66 1014.7
20260905141018 84 96 0.0 0.0 0.00 0.00 0.00 66 1014.4
20260905140512 84 94 0.0 0.0 0.00 0.00 0.00 66 1014.6
20260905140011 84 97 0.0 0.0 0.00 0.00 0.00 67 1014.4
20260905135507 84 95 0.0 0.0 0.00 0.00 0.00 67 1014.5
20260905135002 83 105 0.0 0.0 0.00 0.00 0.00 67 1014.4
20260905134501 83 110 0.0 0.0 0.00 0.00 0.00 67 1014.4
20260905134000 83 114 0.0 0.0 0.00 0.00 0.00 68 1014.2
20260905133455 83 145 0.0 0.0 0.00 0.00 0.00 68 1014.3
20260905132949 82 97 0.0 0.0 0.00 0.00 0.00 70 1014.2
20260905132444 82 88 0.0 0.0 0.00 0.00 0.00 72 1014.4
20260905131940 82 97 0.0 0.0 0.00 0.00 0.00 71 1014.2
20260905131436 81 96 0.0 0.0 0.00 0.00 0.00 71 1014.1
20260905130936 81 92 0.0 0.0 0.00 0.00 0.00 72 1014.0
20260905130435 81 103 0.0 0.0 0.00 0.00 0.00 72 1014.0
20260905125930 80 102 0.0 0.0 0.00 0.00 0.00 72 1013.9
20260905125425 80 90 0.0 0.0 0.00 0.00 0.00 75 1014.0
20260905124920 80 91 0.0 0.0 0.00 0.00 0.00 72 1013.9
20260905124417 80 95 0.0 0.0 0.00 0.00 0.00 72 1013.9
20260905123917 80 86 0.0 0.0 0.00 0.00 0.00 72 1013.6
20260905123413 80 94 0.0 0.0 0.00 0.00 0.00 71 1013.8
20260905122908 80 97 0.0 0.0 0.00 0.00 0.00 71 1013.5
20260905122408 80 98 0.0 0.0 0.00 0.00 0.00 72 1013.6
20260905121903 79 106 0.0 0.0 0.00 0.00 0.00 72 1013.6
20260905121359 79 98 0.0 0.0 0.00 0.00 0.00 72 1013.6
20260905120858 79 96 0.0 0.0 0.00 0.00 0.00 73 1013.6
20260905120357 78 94 0.0 0.0 0.00 0.00 0.00 74 1013.6
20260905115853 79 100 0.0 0.0 0.00 0.00 0.00 75 1013.7
20260905115352 78 89 0.0 0.0 0.00 0.00 0.00 75 1013.5
20260905114847 78 89 0.0 0.0 0.00 0.00 0.00 74 1013.6
20260905114346 78 99 0.0 0.0 0.00 0.00 0.00 74 1013.3
20260905113846 78 88 0.0 0.0 0.00 0.00 0.00 75 1013.1
20260905113341 78 120 0.0 0.0 0.00 0.00 0.00 75 1013.1
20260905112831 78 95 0.0 0.0 0.00 0.00 0.00 75 1013.0
20260905112325 78 95 0.0 0.0 0.00 0.00 0.00 75 1013.2
20260905111821 78 95 0.0 0.0 0.00 0.00 0.00 75 1013.1
20260905111315 78 95 0.0 0.0 0.00 0.00 0.00 74 1013.0
20260905110815 78 95 0.0 0.0 0.00 0.00 0.00 74 1013.1
20260905110314 78 95 0.0 0.0 0.00 0.00 0.00 74 1012.5
20260905105810 79 95 0.0 0.0 0.00 0.00 0.00 74 1012.9
20260905105308 79 95 0.0 0.0 0.00 0.00 0.00 74 1013.0
20260905104803 79 95 0.0 0.0 0.00 0.00 0.00 73 1012.8
20260905104300 79 95 0.0 0.0 0.00 0.00 0.00 73 1013.0
20260905103759 79 95 0.0 0.0 0.00 0.00 0.00 73 1012.8
20260905103254 80 95 0.0 0.0 0.00 0.00 0.00 72 1012.9
20260905102750 80 95 0.0 0.0 0.00 0.00 0.00 72 1012.8
20260905102247 80 95 0.0 0.0 0.00 0.00 0.00 71 1012.8
20260905101747 80 94 0.0 0.0 0.00 0.00 0.00 71 1012.9
20260905101245 80 97 0.0 0.0 0.00 0.00 0.00 71 1012.5
20260905100740 79 94 0.0 0.0 0.00 0.00 0.00 71 1012.8
20260905100236 79 93 0.0 0.0 0.00 0.00 0.00 72 1012.9
20260905095735 79 85 0.0 0.0 0.00 0.00 0.00 72 1012.8
20260905095235 79 85 0.0 0.0 0.00 0.00 0.00 72 1012.9
20260905094730 79 85 0.0 0.0 0.00 0.00 0.00 73 1012.9
20260905094225 79 85 0.0 0.0 0.00 0.00 0.00 72 1012.8
20260905093724 79 85 0.0 0.0 0.00 0.00 0.00 71 1012.8
20260905093220 79 85 0.0 0.0 0.00 0.00 0.00 71 1012.8
20260905092715 79 85 0.0 0.0 0.00 0.00 0.00 71 1012.9
20260905092211 80 85 0.0 0.0 0.00 0.00 0.00 71 1013.1
20260905091711 79 85 0.0 0.0 0.00 0.00 0.00 71 1013.0
20260905091206 80 85 0.0 0.0 0.00 0.00 0.00 71 1012.7
20260905090659 79 85 0.0 0.0 0.00 0.00 0.00 71 1012.9
20260905090156 79 85 0.0 0.0 0.00 0.00 0.00 72 1012.8
20260905085653 80 85 0.0 0.0 0.00 0.00 0.00 72 1013.0
20260905085149 80 85 0.0 0.0 0.00 0.00 0.00 71 1012.9
20260905084643 80 85 0.0 0.0 0.00 0.00 0.00 70 1013.0
20260905084138 80 85 0.0 0.0 0.00 0.00 0.00 69 1012.8
20260905083638 80 85 0.0 0.0 0.00 0.00 0.00 68 1012.7
20260905083134 81 85 0.0 0.0 0.00 0.00 0.00 68 1012.9
20260905082629 81 85 0.0 0.0 0.00 0.00 0.00 68 1012.8
20260905082126 81 85 0.0 0.0 0.00 0.00 0.00 68 1013.0
20260905081620 81 85 0.0 0.0 0.00 0.00 0.00 68 1012.8
20260905081114 81 85 0.0 0.0 0.00 0.00 0.00 68 1012.9
20260905080609 81 85 0.0 0.0 0.00 0.00 0.00 68 1012.9
20260905080109 81 85 0.0 0.0 0.00 0.00 0.00 69 1012.9
20260905075608 81 85 0.0 0.0 0.00 0.00 0.00 69 1012.8
20260905075102 81 85 0.0 0.0 0.00 0.00 0.00 69 1012.9
20260905074601 80 85 0.0 0.0 0.00 0.00 0.00 69 1012.8
20260905074057 80 85 0.0 0.0 0.00 0.00 0.00 70 1012.9
20260905073553 80 85 0.0 0.0 0.00 0.00 0.00 72 1013.1
20260905073048 80 85 0.0 0.0 0.00 0.00 0.00 71 1012.9
20260905072547 80 85 0.0 0.0 0.00 0.00 0.00 71 1012.8
20260905072043 80 85 0.0 0.0 0.00 0.00 0.00 71 1012.8
20260905071540 80 85 0.0 0.0 0.00 0.00 0.00 71 1012.7
20260905071040 80 85 0.0 0.0 0.00 0.00 0.00 70 1013.0
20260905070535 80 85 0.0 0.0 0.00 0.00 0.00 71 1012.7
20260905070032 80 85 0.0 0.0 0.00 0.00 0.00 71 1012.9
20260905065529 80 85 0.0 0.0 0.00 0.00 0.00 72 1013.1
20260905065025 80 85 0.0 0.0 0.00 0.00 0.00 71 1013.1
20260905064525 81 85 0.0 0.0 0.00 0.00 0.00 72 1013.1
20260905064020 82 85 0.0 0.0 0.00 0.00 0.00 70 1013.3
20260905063519 82 86 0.0 0.0 0.00 0.00 0.00 70 1013.4
20260905063016 82 96 0.0 0.0 0.00 0.00 0.00 68 1013.3
20260905062515 82 94 0.0 0.0 0.00 0.00 0.00 66 1013.3
20260905062010 83 87 0.0 0.0 0.00 0.00 0.00 67 1012.9
20260905061506 83 87 0.0 0.0 0.00 0.00 0.00 67 1013.2
20260905061004 84 87 0.0 0.0 0.00 0.00 0.00 66 1013.2
20260905060501 84 87 0.0 0.0 0.00 0.00 0.00 63 1013.1
20260905060000 84 87 0.0 0.0 0.00 0.00 0.00 64 1013.1
20260905055500 85 94 0.0 0.0 0.00 0.00 0.00 62 1013.3
20260905055000 85 95 0.0 0.0 0.00 0.00 0.00 62 1013.2
20260905054455 85 95 0.0 0.0 0.00 0.00 0.00 62 1012.9
20260905053950 85 97 0.0 0.0 0.00 0.00 0.00 61 1013.1
20260905053445 85 92 0.0 0.0 0.00 0.00 0.00 62 1012.8
20260905052941 85 113 0.0 0.0 0.00 0.00 0.00 62 1013.0
20260905052440 85 115 0.0 0.0 0.00 0.00 0.00 63 1013.0
20260905051940 85 99 0.0 0.0 0.00 0.00 0.00 63 1012.8
20260905051430 85 135 0.0 0.0 0.00 0.00 0.00 62 1012.9
20260905050928 85 101 0.0 0.0 0.00 0.00 0.00 63 1013.1
20260905050423 85 99 0.0 0.0 0.00 0.00 0.00 63 1013.1
20260905045919 85 98 0.0 0.0 0.00 0.00 0.00 63 1013.3
20260905045414 85 98 0.0 0.0 0.00 0.00 0.00 63 1013.2
20260905044909 85 95 0.0 0.0 0.00 0.00 0.00 63 1013.1
20260905044403 86 91 0.0 0.0 0.00 0.00 0.00 63 1013.2
20260905043902 86 90 0.0 0.0 0.00 0.00 0.00 63 1013.3
20260905043357 86 91 0.0 0.0 0.00 0.00 0.00 63 1013.0
20260905042857 86 89 0.0 0.0 0.00 0.00 0.00 62 1013.0
20260905042352 86 98 0.0 0.0 0.00 0.00 0.00 62 1013.0
20260905041846 87 113 0.0 0.0 0.00 0.00 0.00 62 1013.1
20260905041344 87 113 0.0 0.0 0.00 0.00 0.00 61 1013.0
20260905040843 87 99 0.0 0.0 0.00 0.00 0.00 61 1013.3
20260905040342 87 98 0.0 0.0 0.00 0.00 0.00 61 1013.0
20260905035842 87 104 0.0 0.0 0.00 0.00 0.00 61 1012.8
20260905035338 87 99 0.0 0.0 0.00 0.00 0.00 61 1013.2
20260905034834 86 101 0.0 0.0 0.00 0.00 0.00 62 1013.2
20260905034329 86 108 0.0 0.0 0.00 0.00 0.00 62 1013.1
20260905033828 86 95 0.0 0.0 0.00 0.00 0.00 62 1012.9
20260905033323 86 94 0.0 0.0 0.00 0.00 0.00 63 1013.1
20260905032823 86 92 0.0 0.0 0.00 0.00 0.00 62 1013.0
20260905032318 86 88 0.0 0.0 0.00 0.00 0.00 62 1013.1
20260905031813 86 89 0.0 0.0 0.00 0.00 0.00 62 1012.8
20260905031309 86 93 0.0 0.0 0.00 0.00 0.00 62 1012.9
20260905030804 87 104 0.0 0.0 0.00 0.00 0.00 62 1012.7
20260905030300 87 96 0.0 0.0 0.00 0.00 0.00 60 1012.7
20260905025754 87 89 0.0 0.0 0.00 0.00 0.00 60 1012.7
20260905025249 88 92 0.0 0.0 0.00 0.00 0.00 59 1012.8
20260905024745 88 89 0.0 0.0 0.00 0.00 0.00 58 1012.8
20260905024241 88 106 0.0 0.0 0.00 0.00 0.00 58 1012.9